Flag for Germany Weather past 2 weeks in Nordkirchen, North Rhine-Westphalia, Germany

Now
63 °F

Clear.


Feels Like: 63 °F
Forecast: 50 / 77 °F
Wind: 3 mph from North

Location: Dortmund / Wickede

Current Time: Aug 1, 2015 at 10:53:21 PM

Latest Report: Aug 1, 2015 at 10:20 PM


Visibility: 10 mi

Pressure: 30.04 "Hg

Humidity: 56%

Dew point: 46 °F

Location of NordkirchenLocation

Historic Weather in Nordkirchen — Graph

°F

Nordkirchen temperature yesterday

Maximum temperature yesterday: 66 °F (at 3:50 PM)
Minimum temperature yesterday: 45 °F (at 5:20 AM)
Average temperature yesterday: 58 °F

Past Weeks' High & Low Weather Summary

 TemperatureHumidityPressure
High81 °F (Jul 24, 5:50 PM)88% (Jul 18, 6:50 AM)30.15 "Hg (Jul 18, 6:50 AM)
Low45 °F (Jul 31, 5:20 AM)31% (Aug 1, 2:20 PM)29.50 "Hg (Jul 25, 7:50 AM)
Average64 °F65%29.87 "Hg
* Reported Jul 17 9:50 PM — Aug 1 9:20 PM, Nordkirchen, Weather by CustomWeather, © 2015

Note: Actual official high and low records may vary slightly from our data, if they occured in-between our weather recording intervals... More about our weather records

Advertising

Nordkirchen weather history for previous 24 hours

 ConditionsComfort  
Time TempWeatherWind HumidityBarometerVisibility
9:20 PM
Sat, Aug 1
64 °FPassing clouds.5 mph56%30.01 "HgN/A
8:50 PM68 °FPassing clouds.6 mph46%30.01 "HgN/A
8:20 PM72 °FPassing clouds.6 mph38%30.01 "HgN/A
7:50 PM73 °FSunny.6 mph38%29.98 "Hg10 mi
7:20 PM73 °FSunny.6 mph38%29.98 "Hg10 mi
6:50 PM73 °FPassing clouds.5 mph36%29.98 "HgN/A
6:20 PM73 °FPassing clouds.6 mph33%29.98 "HgN/A
5:50 PM72 °FPassing clouds.6 mph41%29.98 "HgN/A
5:20 PM75 °FPassing clouds.7 mph34%29.98 "HgN/A
4:50 PM73 °FPassing clouds.5 mph33%29.98 "HgN/A
4:20 PM75 °FSunny.3 mph34%29.98 "Hg10 mi
3:50 PM73 °FSunny.5 mph33%29.95 "Hg10 mi
3:20 PM73 °FSunny.5 mph33%29.95 "Hg10 mi
2:50 PM75 °FSunny.5 mph31%29.98 "Hg10 mi
2:20 PM73 °FPassing clouds.5 mph31%29.98 "HgN/A
1:50 PM72 °FPassing clouds.5 mph33%29.98 "HgN/A
1:20 PM73 °FPassing clouds.6 mph38%29.98 "HgN/A
12:50 PM72 °FSunny.5 mph36%29.98 "Hg10 mi
12:20 PM70 °FSunny.3 mph38%29.98 "Hg10 mi
11:50 AM70 °FSunny.5 mph40%29.98 "Hg10 mi
11:20 AM68 °FSunny.5 mph43%29.98 "Hg10 mi
10:50 AM64 °FSunny.3 mph49%29.98 "Hg10 mi
10:20 AM64 °FSunny.2 mph49%29.98 "Hg10 mi
9:50 AM63 °FSunny.2 mph52%29.98 "Hg10 mi
9:20 AM59 °FSunny.2 mph59%29.98 "Hg10 mi
8:50 AM57 °FSunny.1 mph67%29.98 "Hg10 mi
8:20 AM54 °FSunny.2 mph72%29.98 "Hg10 mi
7:50 AM50 °FSunny.1 mph82%29.98 "Hg10 mi
7:20 AM52 °FSunny.2 mph77%29.98 "Hg10 mi
6:50 AM48 °FRain. Overcast.2 mph82%29.98 "Hg1 mi
6:20 AM48 °FClear.2 mph82%29.98 "Hg10 mi
5:50 AM48 °FClear.5 mph82%29.98 "Hg10 mi
5:20 AM46 °FClear.6 mph82%29.98 "Hg10 mi
10:50 PM
Fri, Jul 31
55 °FClear.5 mph55%30.04 "Hg10 mi
10:20 PM55 °FClear.5 mph59%30.04 "Hg10 mi
Weather by CustomWeather, © 2015

See weather overviewHow to use our weather pages